AirNav   BOSE ProFlight Aviation Headset
 
 439 users online  

05LA Greg's Flying Service Airport
Baskin, Louisiana, USA

GOING TO BASKIN?


FAA INFORMATION EFFECTIVE 21 JUNE 2018

Location

FAA Identifier: 05LA
Lat/Long: 32-15-55.5150N / 091-41-52.5150W
32-15.925250N / 091-41.875250W
32.2654208 / -91.6979208
(estimated)
Elevation: 77 ft. / 23 m (estimated)
Variation: 03E (1990)
From city: 2 miles E of BASKIN, LA
Time zone: UTC -5 (UTC -6 during Standard Time)
Zip code: 71295

Airport Operations

Airport use: Private use. Permission required prior to landing
Activation date: 11/1992
Control tower: no
ARTCC: FORT WORTH CENTER
FSS: DE RIDDER FLIGHT SERVICE STATION
Attendance: UNATNDD
Segmented circle: no

Nearby radio navigation aids

VOR radial/distance  VOR name  Freq  Var
MLUr128/22.8MONROE VORTAC117.2003E

 
NDB name  Hdg/Dist  Freq  Var  ID
BASTROP159/30.832903EBQP -... --.- .--.
TALLULAH270/34.134402ETKH - -.- ....

Airport Services

Runway Information

Runway 18/36

Dimensions: 2200 x 70 ft. / 671 x 21 m
Surface: turf
RUNWAY 18  RUNWAY 36
Latitude: 32-16.106667N32-15.743833N
Longitude: 091-41.876667W091-41.873833W
Elevation: 77.0 ft.75.0 ft.
Traffic pattern: leftright
Runway heading: 177 magnetic, 180 true357 magnetic, 360 true
Obstructions: 60 ft. trees, 100 ft. from runway60 ft. trees, 100 ft. from runway

Airport Ownership and Management from official FAA records

Ownership: Privately-owned
Owner: GREGORY W. TAYLOR
540 BLOUNT ROAD
WINNSBORO, LA 71295
Phone (318) 439-8017

Additional Remarks

100 FT TREES NORTH END OF RWY.

Instrument Procedures

There are no published instrument procedures at 05LA.

Some nearby airports with instrument procedures:

M79 - John H Hooks Jr Memorial Airport (14 nm N)
KMLU - Monroe Regional Airport (23 nm NW)
KBQP - Morehouse Memorial Airport (31 nm N)
KTVR - Vicksburg Tallulah Regional Airport (34 nm E)
KVKS - Vicksburg Municipal Airport (39 nm E)
 
Loc | Ops | Rwys | IFR | FBO | Links
Com | Nav | Svcs | Stats | Notes


 
Area around 05LA (Greg's Flying Service Airport)
 
Road maps at: MapQuest Bing Google
 
Aerial photo
No photo
 
Sectional chart

 
Airport distance calculator
Flying to Greg's Flying Service Airport? Find the distance to fly.

From to 05LA

Sunrise and sunset
Times for 18-Jul-2018
 Local
(UTC-5)
 Zulu
(UTC)
Morning civil twilight05:4610:46
Sunrise06:1411:14
Sunset20:1201:12
Evening civil twilight20:4001:40

Current date and time
Zulu (UTC)  18-Jul-2018 06:03:06
Local (UTC-5)  18-Jul-2018 01:03:06
 
METAR
KMLU 
23nm NW 
180553Z AUTO 00000KT 10SM CLR 26/25 A2997 RMK AO2 SLP148 T02610250 10289 20261 403110244 58007
KBQP 
31nm N 
180555Z AUTO 00000KT 5SM BR BKN065 24/24 A2998 RMK AO2 60003 T02410237 10279 20240 402990240
KTVR 
34nm E 
180553Z AUTO 00000KT 5SM BR FEW060 26/26 A2999 RMK AO2 SLP161 T02560256 10272 20256 402940239 58003
KVKS 
39nm E 
180555Z AUTO 00000KT 8SM SCT055 26/26 A2999 RMK A01
K0R4 
43nm S 
180555Z AUTO 20003KT 10SM CLR 26/25 A2998 RMK AO2 T02550246 10275 20252 402800244
KHEZ 
44nm SE 
180556Z AUTO 19004KT 10SM CLR 25/24 A2999 RMK AO2 SLP157 T02500239 10278 20250 58008
TAF
KMLU 
23nm NW 
180542Z 1806/1906 18003KT P6SM FEW090 TEMPO 1810/1813 00000KT 1SM BR BKN008 FM181300 VRB05KT P6SM VCSH SCT060 BKN100 OVC250 FM181800 30006KT P6SM VCTS BKN060CB BKN120 FM182100 28005KT P6SM BKN120 OVC250 FM190100 22004KT P6SM OVC250
NOTAMs
Click for the latest NOTAMs
NOTAMs are issued by the DoD/FAA and will open in a separate window not controlled by AirNav.

 

 
 

Would you like to see your business listed on this page?

 If your business provides an interesting product or service to pilots, flight crews, aircraft, or users of the Greg's Flying Service Airport, you should consider listing it here.  To start the listing process, click on the button below
 
Add a business
 

Other Pages about Greg's Flying Service Airport

Update a link
 
Copyright © AirNav, LLC. All rights reserved. Privacy Policy  Contact